Previsão horária em Plochocin

Hoje, 8 Março, Segunda-feira

Tempo Temperatura Precipitação Vento Pressão Humidade
00:00 -1°C° 0 mm 2 m/s 762 mmHg 82%
01:00 -2°C° 0 mm 2 m/s 762 mmHg 81%
02:00 -2°C° 0 mm 2 m/s 762 mmHg 79%
03:00 -2°C° 0 mm 2 m/s 763 mmHg 76%
04:00 -3°C° 0 mm 2 m/s 763 mmHg 74%
05:00 -3°C° 0 mm 2 m/s 763 mmHg 75%
06:00 -3°C° 0 mm 2 m/s 763 mmHg 76%
07:00 -2°C° 0 mm 2 m/s 764 mmHg 74%
08:00 -1°C° 0 mm 2 m/s 764 mmHg 66%
09:00 +1°C° 0 mm 3 m/s 765 mmHg 58%
10:00 +2°C° 0 mm 3 m/s 766 mmHg 50%
11:00 +3°C° 0 mm 3 m/s 766 mmHg 47%
12:00 +3°C° 0 mm 3 m/s 766 mmHg 43%
13:00 +4°C° 0 mm 3 m/s 766 mmHg 40%
14:00 +3°C° 0 mm 3 m/s 766 mmHg 42%
15:00 +3°C° 0 mm 3 m/s 765 mmHg 44%
16:00 +2°C° 0 mm 3 m/s 765 mmHg 46%
17:00 +1°C° 0 mm 3 m/s 765 mmHg 54%
18:00 -1°C° 0 mm 2 m/s 765 mmHg 62%
19:00 -2°C° 0 mm 2 m/s 766 mmHg 70%
20:00 -3°C° 0 mm 2 m/s 766 mmHg 71%
21:00 -1°C° 0 mm 1 m/s 766 mmHg 72%
22:00 -1°C° 0 mm 1 m/s 766 mmHg 73%
23:00 -1°C° 0 mm 1 m/s 766 mmHg 73%

Amanhã, 9 Março, Terça-feira

Tempo Temperatura Precipitação Vento Pressão Humidade
00:00 -1°C° 0 mm 1 m/s 766 mmHg 73%
01:00 -2°C° 0 mm 1 m/s 766 mmHg 73%
02:00 -2°C° 0 mm 1 m/s 765 mmHg 73%
03:00 -2°C° 0 mm 1 m/s 765 mmHg 72%
04:00 -2°C° 0 mm 1 m/s 765 mmHg 71%
05:00 -2°C° 0 mm 1 m/s 764 mmHg 70%
06:00 -3°C° 0 mm 2 m/s 764 mmHg 69%
07:00 -3°C° 0 mm 2 m/s 764 mmHg 68%
08:00 -2°C° 0 mm 2 m/s 764 mmHg 61%
09:00 +1°C° 0 mm 2 m/s 764 mmHg 54%
10:00 +2°C° 0 mm 2 m/s 764 mmHg 47%
11:00 +3°C° 0 mm 2 m/s 764 mmHg 43%
12:00 +4°C° 0 mm 2 m/s 764 mmHg 40%
13:00 +6°C° 0 mm 1 m/s 764 mmHg 36%
14:00 +6°C° 0 mm 1 m/s 764 mmHg 36%
15:00 +5°C° 0 mm 1 m/s 763 mmHg 37%
16:00 +5°C° 0 mm 1 m/s 763 mmHg 37%
17:00 +4°C° 0 mm 1 m/s 763 mmHg 42%
18:00 +2°C° 0 mm 1 m/s 763 mmHg 47%
19:00 +1°C° 0 mm 1 m/s 763 mmHg 53%
20:00 0°C° 0 mm 1 m/s 764 mmHg 53%
21:00 0°C° 0 mm 1 m/s 764 mmHg 54%
22:00 0°C° 0 mm 1 m/s 764 mmHg 54%
23:00 0°C° 0 mm 1 m/s 764 mmHg 54%

Depois de amanhã, 10 Março, Quarta-feira

Tempo Temperatura Precipitação Vento Pressão Humidade
00:00 0°C° 0 mm 1 m/s 764 mmHg 53%
01:00 -1°C° 0 mm 1 m/s 764 mmHg 53%
02:00 -1°C° 0 mm 1 m/s 764 mmHg 53%
03:00 -1°C° 0 mm 1 m/s 764 mmHg 54%
04:00 -1°C° 0 mm 1 m/s 764 mmHg 54%
05:00 -1°C° 0 mm 1 m/s 764 mmHg 54%
06:00 -1°C° 0 mm 1 m/s 764 mmHg 53%
07:00 -1°C° 0 mm 1 m/s 764 mmHg 52%
08:00 +1°C° 0 mm 1 m/s 764 mmHg 48%
09:00 +3°C° 0 mm 1 m/s 764 mmHg 43%
10:00 +3°C° 0 mm 2 m/s 765 mmHg 38%
11:00 +4°C° 0 mm 2 m/s 764 mmHg 36%
12:00 +5°C° 0 mm 2 m/s 764 mmHg 34%
13:00 +6°C° 0 mm 2 m/s 764 mmHg 32%
14:00 +6°C° 0 mm 2 m/s 764 mmHg 34%
15:00 +5°C° 0 mm 3 m/s 764 mmHg 37%
16:00 +5°C° 0 mm 3 m/s 763 mmHg 39%
17:00 +3°C° 0 mm 3 m/s 763 mmHg 45%
18:00 +1°C° 0 mm 3 m/s 763 mmHg 50%
19:00 0°C° 0 mm 3 m/s 763 mmHg 56%
20:00 0°C° 0 mm 3 m/s 763 mmHg 56%
21:00 -1°C° 0 mm 4 m/s 763 mmHg 55%
22:00 -2°C° 0 mm 4 m/s 763 mmHg 55%
23:00 -2°C° 0 mm 5 m/s 762 mmHg 58%

11 Março, Quinta-feira

Tempo Temperatura Precipitação Vento Pressão Humidade
00:00 -2°C° 0 mm 5 m/s 762 mmHg 61%
01:00 -2°C° 0 mm 6 m/s 761 mmHg 64%
02:00 -2°C° 0 mm 6 m/s 760 mmHg 70%
03:00 -2°C° 0 mm 6 m/s 759 mmHg 76%
04:00 -2°C° 0 mm 6 m/s 759 mmHg 82%
05:00 -1°C° 0 mm 6 m/s 758 mmHg 82%
06:00 -1°C° 0 mm 7 m/s 757 mmHg 82%
07:00 -1°C° 0 mm 7 m/s 756 mmHg 82%
08:00 0°C° 0.4 mm 8 m/s 755 mmHg 84%
09:00 0°C° 0.4 mm 8 m/s 754 mmHg 86%
10:00 +1°C° 0.4 mm 9 m/s 753 mmHg 89%
11:00 +1°C° 0.7 mm 9 m/s 753 mmHg 89%
12:00 +1°C° 0.7 mm 9 m/s 752 mmHg 89%
13:00 +2°C° 0.7 mm 9 m/s 751 mmHg 89%
14:00 +2°C° 0.9 mm 8 m/s 750 mmHg 90%
15:00 +3°C° 0.9 mm 7 m/s 750 mmHg 91%
16:00 +4°C° 0.9 mm 6 m/s 749 mmHg 92%
17:00 +4°C° 0.1 mm 6 m/s 749 mmHg 91%
18:00 +4°C° 0.1 mm 6 m/s 749 mmHg 91%
19:00 +5°C° 0.1 mm 6 m/s 748 mmHg 90%
20:00 +5°C° 0 mm 6 m/s 748 mmHg 90%
21:00 +5°C° 0 mm 5 m/s 748 mmHg 89%
22:00 +5°C° 0 mm 5 m/s 749 mmHg 88%
23:00 +5°C° 0.2 mm 5 m/s 749 mmHg 88%

12 Março, Sexta-feira

Tempo Temperatura Precipitação Vento Pressão Humidade
00:00 +4°C° 0.2 mm 6 m/s 749 mmHg 88%
01:00 +3°C° 0.2 mm 6 m/s 749 mmHg 88%
02:00 +3°C° 0 mm 6 m/s 749 mmHg 87%
03:00 +3°C° 0 mm 6 m/s 749 mmHg 86%
04:00 +3°C° 0 mm 6 m/s 750 mmHg 85%
05:00 +2°C° 0.1 mm 7 m/s 750 mmHg 86%
06:00 +2°C° 0.1 mm 7 m/s 751 mmHg 88%
07:00 +2°C° 0.1 mm 7 m/s 751 mmHg 89%
08:00 +3°C° 0 mm 7 m/s 752 mmHg 81%
09:00 +4°C° 0 mm 7 m/s 752 mmHg 74%
10:00 +5°C° 0 mm 8 m/s 753 mmHg 67%
11:00 +5°C° 0 mm 8 m/s 753 mmHg 64%
12:00 +6°C° 0 mm 8 m/s 753 mmHg 61%
13:00 +7°C° 0 mm 8 m/s 753 mmHg 57%
14:00 +6°C° 0.1 mm 8 m/s 753 mmHg 59%
15:00 +6°C° 0.1 mm 7 m/s 753 mmHg 60%
16:00 +6°C° 0.1 mm 7 m/s 753 mmHg 61%
17:00 +5°C° 0 mm 6 m/s 753 mmHg 65%
18:00 +5°C° 0 mm 5 m/s 752 mmHg 70%
19:00 +3°C° 0 mm 5 m/s 752 mmHg 74%
20:00 +3°C° 0 mm 5 m/s 752 mmHg 74%
21:00 +3°C° 0 mm 6 m/s 752 mmHg 73%
22:00 +4°C° 0 mm 7 m/s 752 mmHg 72%
23:00 +3°C° 0 mm 6 m/s 752 mmHg 75%

13 Março, Sábado

Tempo Temperatura Precipitação Vento Pressão Humidade
00:00 +3°C° 0 mm 6 m/s 751 mmHg 78%
01:00 +3°C° 0 mm 6 m/s 751 mmHg 82%
02:00 +3°C° 0 mm 5 m/s 751 mmHg 84%
03:00 +2°C° 0 mm 5 m/s 751 mmHg 86%
04:00 +2°C° 0 mm 5 m/s 751 mmHg 88%
05:00 +2°C° 0 mm 5 m/s 751 mmHg 89%
06:00 +2°C° 0 mm 5 m/s 751 mmHg 89%
07:00 +2°C° 0 mm 5 m/s 752 mmHg 90%
08:00 +3°C° 0.1 mm 5 m/s 752 mmHg 83%
09:00 +4°C° 0.1 mm 6 m/s 752 mmHg 76%
10:00 +5°C° 0.1 mm 6 m/s 752 mmHg 70%
11:00 +5°C° 0.2 mm 6 m/s 752 mmHg 69%
12:00 +5°C° 0.2 mm 7 m/s 752 mmHg 69%
13:00 +6°C° 0.2 mm 7 m/s 752 mmHg 69%
14:00 +6°C° 0.2 mm 7 m/s 752 mmHg 66%
15:00 +7°C° 0.2 mm 6 m/s 752 mmHg 63%
16:00 +7°C° 0.2 mm 6 m/s 752 mmHg 60%
17:00 +6°C° 0 mm 5 m/s 751 mmHg 65%
18:00 +6°C° 0 mm 4 m/s 751 mmHg 70%
19:00 +5°C° 0 mm 4 m/s 751 mmHg 75%
20:00 +5°C° 0.1 mm 5 m/s 750 mmHg 78%
21:00 +4°C° 0.1 mm 6 m/s 750 mmHg 82%
22:00 +4°C° 0.1 mm 6 m/s 749 mmHg 85%
23:00 +4°C° 0.1 mm 6 m/s 749 mmHg 85%
Mostrar mais

Necessitamos do seu Consentimento

A Meteoprog e os seus Fornecedores de Serviços podem armazenar e aceder a dados pessoais como cookies, identificadores do dispositivo ou outras tecnologias semelhantes existentes no seu dispositivo e processar estes dados para personalizar conteúdos e anúncios, assim como funcionalidades nas redes sociais e análise de tráfego.

  • Armazenar e/ou aceder a informações no seu dispositivo

    Os cookies, identificadores do dispositivo ou outras informações podem ser armazenados ou acedidos no seu dispositivo, para os fins acima indicados.

  • Anúncios e conteúdos personalizados, medição de anúncios e conteúdos, dados sobre o público-alvo e desenvolvimento de produtos

    Os anúncios e os conteúdos podem ser personalizados com base num perfil. Podem ser adicionados dados adicionais para uma maior personalização dos anúncios e dos conteúdos. A eficácia dos anúncios e dos conteúdos pode ser medida. Podem ser obtidas informações sobre o público que visualizou os anúncios e os conteúdos. Estes dados podem ser usados para desenvolver ou melhorar sistemas, softwares ou a experiência do utilizador.

Ao clicar em "Eu concordo”, permitirá o uso de cookies, identificadores do dispositivo e web beacons mencionados ou outras tecnologias semelhantes. As configurações do navegador do seu dispositivo podem ser alteradas.

Para certos fins, podem ser invocados interesses legítimos ao invés de consentimento. Pode ler mais informação sobre este assunto na nossa Política de Privacidade e Cookies.